AUA5VT LOWW-EDDS

Flight info

Callsign AUA5VT
Flight time 0h 52m
Altitude 30000
Route LUGEM2B/16 LUGEM DCT KIRDI DCT EBEDA L173 MAH/N0432F240 L173 DODIL T127 TEKSI TEKSI5A
Aircraft A321/M-SDE3FGHIRWY/LB1

Departure

Time 2026-05-04 18:23
Airport Vienna International Airport (LOWW)

Arrival

Time 2026-05-04 19:16
Airport Stuttgart Airport (EDDS)
Time Latitude Longitude Altitude Speed Heading
2026-05-04 17:54 48.11777 16.56571 616 ft 0 kts 25°
2026-05-04 18:15 48.11768 16.56564 625 ft 3 kts 27°
2026-05-04 18:15 48.11751 16.56550 620 ft 3 kts 34°
2026-05-04 18:16 48.11735 16.56532 623 ft 3 kts 47°
2026-05-04 18:16 48.11723 16.56509 625 ft 3 kts 71°
2026-05-04 18:16 48.11720 16.56486 621 ft 2 kts 110°
2026-05-04 18:17 48.11721 16.56480 625 ft 0 kts 116°
2026-05-04 18:19 48.11718 16.56492 623 ft 5 kts 116°
2026-05-04 18:19 48.11694 16.56565 614 ft 10 kts 116°
2026-05-04 18:19 48.11658 16.56676 622 ft 12 kts 116°
2026-05-04 18:20 48.11624 16.56781 622 ft 11 kts 116°
2026-05-04 18:20 48.11592 16.56879 617 ft 11 kts 116°
2026-05-04 18:20 48.11546 16.57022 611 ft 16 kts 116°
2026-05-04 18:20 48.11499 16.57169 616 ft 15 kts 116°
2026-05-04 18:21 48.11453 16.57309 621 ft 15 kts 116°
2026-05-04 18:21 48.11375 16.57371 609 ft 14 kts 188°
2026-05-04 18:21 48.11288 16.57346 615 ft 13 kts 155°
2026-05-04 18:21 48.11241 16.57462 617 ft 15 kts 116°
2026-05-04 18:22 48.11190 16.57613 618 ft 17 kts 116°
2026-05-04 18:22 48.11131 16.57796 619 ft 22 kts 116°
2026-05-04 18:22 48.11063 16.58007 616 ft 23 kts 115°
2026-05-04 18:22 48.10971 16.58211 625 ft 25 kts 139°
2026-05-04 18:23 48.10749 16.58337 619 ft 58 kts 164°
2026-05-04 18:23 48.10142 16.58593 618 ft 120 kts 164°
2026-05-04 18:23 48.09173 16.59003 661 ft 163 kts 165°
2026-05-04 18:23 48.08104 16.59439 1319 ft 158 kts 165°
2026-05-04 18:24 48.07044 16.59875 1937 ft 160 kts 166°
2026-05-04 18:24 48.05896 16.59899 2212 ft 177 kts 199°
2026-05-04 18:24 48.04851 16.58778 2400 ft 197 kts 229°
2026-05-04 18:24 48.03902 16.57140 2531 ft 220 kts 230°
2026-05-04 18:25 48.02937 16.55249 2825 ft 235 kts 244°
2026-05-04 18:25 48.02561 16.52911 3602 ft 232 kts 268°
2026-05-04 18:25 48.02547 16.50459 4191 ft 240 kts 270°
2026-05-04 18:25 48.02554 16.47871 4593 ft 259 kts 270°
2026-05-04 18:26 48.02568 16.45134 5190 ft 267 kts 270°
2026-05-04 18:26 48.02581 16.42345 5912 ft 270 kts 270°
2026-05-04 18:26 48.02591 16.39525 6633 ft 273 kts 270°
2026-05-04 18:26 48.02654 16.36674 7340 ft 276 kts 278°
2026-05-04 18:27 48.03012 16.33845 8033 ft 279 kts 281°
2026-05-04 18:27 48.03391 16.30987 8718 ft 282 kts 281°
2026-05-04 18:27 48.03727 16.28091 9382 ft 285 kts 276°
2026-05-04 18:27 48.03914 16.25130 10028 ft 288 kts 274°
2026-05-04 18:28 48.04065 16.22077 10328 ft 305 kts 274°
2026-05-04 18:28 48.04208 16.18805 10461 ft 326 kts 274°
2026-05-04 18:28 48.04354 16.15327 10591 ft 345 kts 274°
2026-05-04 18:28 48.04512 16.11654 10719 ft 363 kts 274°
2026-05-04 18:29 48.04681 16.07800 10847 ft 379 kts 274°
2026-05-04 18:29 48.04859 16.03797 11007 ft 392 kts 274°
2026-05-04 18:29 48.05041 15.99692 11371 ft 398 kts 274°
2026-05-04 18:29 48.05226 15.95546 11800 ft 401 kts 274°
2026-05-04 18:30 48.05600 15.87176 12621 ft 406 kts 274°
2026-05-04 18:30 48.05788 15.82957 13009 ft 408 kts 274°
2026-05-04 18:30 48.05979 15.78652 13404 ft 410 kts 274°
2026-05-04 18:31 48.06164 15.74440 13777 ft 413 kts 274°
2026-05-04 18:31 48.06350 15.70150 14144 ft 415 kts 274°
2026-05-04 18:31 48.06535 15.65836 14494 ft 417 kts 274°
2026-05-04 18:31 48.06717 15.61495 14876 ft 420 kts 274°
2026-05-04 18:32 48.06898 15.57132 15258 ft 422 kts 273°
2026-05-04 18:32 48.07078 15.52743 15625 ft 424 kts 273°
2026-05-04 18:32 48.07255 15.48338 16022 ft 426 kts 273°
2026-05-04 18:32 48.07429 15.43905 16391 ft 428 kts 273°
2026-05-04 18:33 48.07606 15.39445 16755 ft 431 kts 273°
2026-05-04 18:33 48.07790 15.34966 17153 ft 433 kts 274°
2026-05-04 18:33 48.07975 15.30461 17534 ft 435 kts 273°
2026-05-04 18:33 48.08153 15.25938 17912 ft 437 kts 273°
2026-05-04 18:34 48.08327 15.21386 18282 ft 439 kts 273°
2026-05-04 18:34 48.08501 15.16819 18634 ft 442 kts 273°
2026-05-04 18:34 48.08675 15.12223 18983 ft 444 kts 273°
2026-05-04 18:34 48.08848 15.07603 19316 ft 446 kts 273°
2026-05-04 18:35 48.09020 15.02958 19643 ft 448 kts 273°
2026-05-04 18:35 48.09192 14.98293 19965 ft 450 kts 273°
2026-05-04 18:35 48.09361 14.93609 20289 ft 452 kts 273°
2026-05-04 18:35 48.09529 14.88896 20609 ft 455 kts 273°
2026-05-04 18:36 48.09695 14.84168 20918 ft 457 kts 273°
2026-05-04 18:36 48.09860 14.79410 21230 ft 459 kts 273°
2026-05-04 18:36 48.10024 14.74636 21525 ft 461 kts 273°
2026-05-04 18:36 48.10187 14.69840 21817 ft 463 kts 273°
2026-05-04 18:37 48.10347 14.65017 22098 ft 465 kts 272°
2026-05-04 18:37 48.10505 14.60175 22367 ft 467 kts 272°
2026-05-04 18:37 48.10664 14.55314 22628 ft 469 kts 272°
2026-05-04 18:37 48.10824 14.50441 22873 ft 470 kts 272°
2026-05-04 18:38 48.10983 14.45545 23108 ft 472 kts 272°
2026-05-04 18:38 48.11142 14.40637 23322 ft 473 kts 272°
2026-05-04 18:38 48.11297 14.35716 23525 ft 475 kts 272°
2026-05-04 18:38 48.11451 14.30772 23717 ft 476 kts 272°
2026-05-04 18:39 48.11604 14.25818 23899 ft 477 kts 272°
2026-05-04 18:39 48.11752 14.20851 24074 ft 479 kts 272°
2026-05-04 18:39 48.11893 14.15876 24297 ft 478 kts 272°
2026-05-04 18:39 48.12032 14.10917 24540 ft 478 kts 272°
2026-05-04 18:40 48.12170 14.05940 24779 ft 477 kts 272°
2026-05-04 18:40 48.12310 14.00979 25017 ft 477 kts 272°
2026-05-04 18:40 48.12454 13.95983 25255 ft 476 kts 272°
2026-05-04 18:40 48.12593 13.91080 25496 ft 476 kts 272°
2026-05-04 18:41 48.12729 13.86133 25725 ft 475 kts 272°
2026-05-04 18:41 48.12860 13.81193 25951 ft 475 kts 272°
2026-05-04 18:41 48.12987 13.76248 26182 ft 475 kts 272°
2026-05-04 18:41 48.13112 13.71318 26392 ft 475 kts 272°
2026-05-04 18:42 48.13236 13.66381 26611 ft 475 kts 272°
2026-05-04 18:42 48.13356 13.61440 26807 ft 475 kts 272°
2026-05-04 18:42 48.13474 13.56500 27021 ft 475 kts 272°
2026-05-04 18:42 48.13591 13.51570 27251 ft 474 kts 272°
2026-05-04 18:43 48.13706 13.46646 27479 ft 473 kts 272°
2026-05-04 18:43 48.13821 13.41728 27705 ft 473 kts 272°
2026-05-04 18:43 48.13934 13.36814 27923 ft 472 kts 272°
2026-05-04 18:43 48.14041 13.31902 28134 ft 472 kts 272°
2026-05-04 18:44 48.14148 13.26930 28349 ft 471 kts 272°
2026-05-04 18:44 48.14355 13.17131 28774 ft 470 kts 271°
2026-05-04 18:44 48.14451 13.12315 28989 ft 469 kts 271°
2026-05-04 18:45 48.14546 13.07430 29199 ft 469 kts 271°
2026-05-04 18:45 48.14640 13.02549 29401 ft 468 kts 271°
2026-05-04 18:45 48.14732 12.97676 29596 ft 468 kts 271°
2026-05-04 18:45 48.14822 12.92806 29785 ft 468 kts 271°
2026-05-04 18:46 48.14912 12.87940 29959 ft 468 kts 271°
2026-05-04 18:46 48.15058 12.79779 30019 ft 468 kts 271°
2026-05-04 18:47 48.15225 12.70038 30006 ft 468 kts 271°
2026-05-04 18:47 48.15379 12.60297 30006 ft 468 kts 271°
2026-05-04 18:48 48.15523 12.50619 30005 ft 468 kts 271°
2026-05-04 18:48 48.15668 12.40870 30003 ft 468 kts 271°
2026-05-04 18:49 48.15803 12.31123 30015 ft 468 kts 271°
2026-05-04 18:49 48.15926 12.21374 30002 ft 468 kts 271°
2026-05-04 18:50 48.16063 12.11616 30002 ft 469 kts 272°
2026-05-04 18:50 48.16559 12.01883 30001 ft 469 kts 276°
2026-05-04 18:50 48.16922 11.97048 29403 ft 466 kts 276°
2026-05-04 18:51 48.17302 11.92229 28777 ft 465 kts 276°
2026-05-04 18:51 48.17669 11.87402 28464 ft 469 kts 276°
2026-05-04 18:51 48.18038 11.82532 28135 ft 471 kts 278°
2026-05-04 18:51 48.18790 11.77769 27962 ft 471 kts 290°
2026-05-04 18:52 48.20106 11.73272 27941 ft 472 kts 294°
2026-05-04 18:52 48.21467 11.68775 27498 ft 473 kts 294°
2026-05-04 18:52 48.22818 11.64272 27023 ft 474 kts 294°
2026-05-04 18:52 48.24167 11.59771 26549 ft 474 kts 294°
2026-05-04 18:53 48.25523 11.55251 26074 ft 475 kts 294°
2026-05-04 18:53 48.26882 11.50733 25596 ft 476 kts 294°
2026-05-04 18:53 48.28251 11.46191 25125 ft 477 kts 294°
2026-05-04 18:53 48.29620 11.41649 24648 ft 478 kts 294°
2026-05-04 18:54 48.30991 11.37100 24175 ft 479 kts 294°
2026-05-04 18:54 48.32361 11.32545 23699 ft 477 kts 294°
2026-05-04 18:54 48.33719 11.28016 23222 ft 474 kts 294°
2026-05-04 18:54 48.35067 11.23509 22746 ft 471 kts 294°
2026-05-04 18:55 48.36401 11.19036 22273 ft 468 kts 294°
2026-05-04 18:55 48.39033 11.10165 21320 ft 461 kts 294°
2026-05-04 18:55 48.40331 11.05771 20847 ft 458 kts 294°
2026-05-04 18:56 48.41618 11.01407 20369 ft 455 kts 294°
2026-05-04 18:56 48.42897 10.97077 19902 ft 451 kts 294°
2026-05-04 18:56 48.44169 10.92771 19421 ft 448 kts 294°
2026-05-04 18:56 48.45431 10.88496 18945 ft 445 kts 294°
2026-05-04 18:57 48.46682 10.84252 18476 ft 442 kts 294°
2026-05-04 18:57 48.47921 10.80028 17992 ft 439 kts 294°
2026-05-04 18:57 48.49146 10.75835 17520 ft 436 kts 294°
2026-05-04 18:57 48.50362 10.71667 17045 ft 433 kts 294°
2026-05-04 18:58 48.51568 10.67522 16567 ft 430 kts 293°
2026-05-04 18:58 48.52764 10.63405 16094 ft 427 kts 293°
2026-05-04 18:58 48.53951 10.59321 15623 ft 424 kts 294°
2026-05-04 18:58 48.55132 10.55264 15134 ft 421 kts 294°
2026-05-04 18:59 48.56304 10.51232 14667 ft 418 kts 293°
2026-05-04 18:59 48.57464 10.47226 14191 ft 415 kts 293°
2026-05-04 18:59 48.58616 10.43243 13710 ft 412 kts 293°
2026-05-04 18:59 48.59758 10.39287 13239 ft 410 kts 293°
2026-05-04 19:00 48.60891 10.35356 12753 ft 407 kts 293°
2026-05-04 19:00 48.62015 10.31446 12288 ft 404 kts 293°
2026-05-04 19:00 48.63128 10.27562 11813 ft 402 kts 293°
2026-05-04 19:00 48.64233 10.23701 11327 ft 399 kts 293°
2026-05-04 19:01 48.65332 10.19864 11034 ft 397 kts 293°
2026-05-04 19:01 48.66425 10.16041 11002 ft 396 kts 293°
2026-05-04 19:01 48.67534 10.12159 11009 ft 397 kts 292°
2026-05-04 19:01 48.68456 10.08223 11009 ft 395 kts 288°
2026-05-04 19:02 48.68996 10.04328 11006 ft 370 kts 270°
2026-05-04 19:02 48.68662 10.00566 11007 ft 348 kts 259°
2026-05-04 19:02 48.68255 9.97106 11005 ft 329 kts 261°
2026-05-04 19:02 48.67915 9.93788 11007 ft 310 kts 262°
2026-05-04 19:03 48.67623 9.90599 11008 ft 297 kts 262°
2026-05-04 19:03 48.67298 9.87535 11009 ft 294 kts 256°
2026-05-04 19:03 48.66766 9.84546 11009 ft 294 kts 255°
2026-05-04 19:03 48.66225 9.81564 11009 ft 294 kts 255°
2026-05-04 19:04 48.65681 9.78583 11009 ft 294 kts 255°
2026-05-04 19:04 48.65134 9.75615 11009 ft 293 kts 254°
2026-05-04 19:04 48.64586 9.72645 11009 ft 293 kts 254°
2026-05-04 19:04 48.64037 9.69670 11009 ft 293 kts 254°
2026-05-04 19:05 48.63489 9.66681 10647 ft 298 kts 256°
2026-05-04 19:05 48.63397 9.63574 10081 ft 300 kts 283°
2026-05-04 19:05 48.64315 9.60779 9504 ft 301 kts 312°
2026-05-04 19:05 48.66036 9.59006 8923 ft 302 kts 342°
2026-05-04 19:06 48.68085 9.58727 8345 ft 296 kts 10°
2026-05-04 19:06 48.69945 9.59937 7765 ft 291 kts 39°
2026-05-04 19:06 48.71184 9.62291 7207 ft 286 kts 68°
2026-05-04 19:06 48.71535 9.65160 7015 ft 277 kts 94°
2026-05-04 19:07 48.71323 9.68070 7006 ft 279 kts 94°
2026-05-04 19:07 48.71330 9.71009 7009 ft 280 kts 84°
2026-05-04 19:07 48.71687 9.73906 6999 ft 280 kts 72°
2026-05-04 19:07 48.72654 9.76431 7013 ft 279 kts 44°
2026-05-04 19:08 48.74253 9.78023 6822 ft 275 kts 18°
2026-05-04 19:08 48.76124 9.78354 6384 ft 272 kts 351°
2026-05-04 19:08 48.77974 9.77757 5922 ft 271 kts 345°
2026-05-04 19:08 48.79720 9.76764 5301 ft 267 kts 325°
2026-05-04 19:09 48.80881 9.74679 4706 ft 261 kts 290°
2026-05-04 19:09 48.81001 9.71999 4167 ft 256 kts 251°
2026-05-04 19:09 48.80024 9.69751 4033 ft 261 kts 224°
2026-05-04 19:09 48.78720 9.67811 4040 ft 265 kts 224°
2026-05-04 19:10 48.77463 9.65860 4034 ft 255 kts 233°
2026-05-04 19:10 48.76700 9.63530 4039 ft 236 kts 252°
2026-05-04 19:10 48.76272 9.61222 4060 ft 220 kts 255°
2026-05-04 19:10 48.75881 9.59017 4044 ft 215 kts 255°
2026-05-04 19:11 48.75483 9.56849 4042 ft 211 kts 254°
2026-05-04 19:11 48.75100 9.54788 4046 ft 197 kts 254°
2026-05-04 19:11 48.74733 9.52816 4047 ft 193 kts 254°
2026-05-04 19:11 48.74372 9.50873 4044 ft 191 kts 254°
2026-05-04 19:12 48.74017 9.48970 4042 ft 185 kts 254°
2026-05-04 19:12 48.73324 9.45258 3930 ft 182 kts 254°
2026-05-04 19:12 48.72981 9.43425 3734 ft 178 kts 254°
2026-05-04 19:13 48.72651 9.41664 3516 ft 171 kts 254°
2026-05-04 19:13 48.72330 9.39949 3289 ft 168 kts 254°
2026-05-04 19:13 48.72012 9.38255 3063 ft 166 kts 254°
2026-05-04 19:13 48.71697 9.36575 2844 ft 165 kts 254°
2026-05-04 19:14 48.71393 9.34910 2637 ft 160 kts 254°
2026-05-04 19:14 48.71094 9.33340 2380 ft 152 kts 253°
2026-05-04 19:14 48.70801 9.31823 2153 ft 149 kts 255°
2026-05-04 19:14 48.70521 9.30325 1978 ft 147 kts 255°
2026-05-04 19:15 48.70239 9.28839 1816 ft 147 kts 254°
2026-05-04 19:15 48.69982 9.27534 1675 ft 145 kts 253°
2026-05-04 19:15 48.69714 9.26057 1443 ft 147 kts 255°
2026-05-04 19:15 48.69431 9.24551 1253 ft 150 kts 254°
2026-05-04 19:16 48.69166 9.23125 1220 ft 126 kts 254°
2026-05-04 19:16 48.68952 9.22015 1247 ft 81 kts 253°
2026-05-04 19:16 48.68853 9.21474 1257 ft 40 kts 254°
2026-05-04 19:16 48.68815 9.21140 1262 ft 27 kts 276°
2026-05-04 19:17 48.68853 9.20884 1272 ft 23 kts 285°
2026-05-04 19:17 48.68876 9.20694 1274 ft 16 kts 269°
2026-05-04 19:17 48.68853 9.20556 1278 ft 12 kts 254°
2026-05-04 19:17 48.68833 9.20452 1280 ft 11 kts 253°
2026-05-04 19:18 48.68800 9.20276 1285 ft 21 kts 254°
2026-05-04 19:18 48.68764 9.20082 1289 ft 17 kts 254°
2026-05-04 19:18 48.68766 9.19938 1292 ft 12 kts 275°
2026-05-04 19:18 48.68750 9.19820 1294 ft 14 kts 252°
2026-05-04 19:19 48.68721 9.19650 1295 ft 17 kts 254°
2026-05-04 19:19 48.68689 9.19484 1295 ft 16 kts 253°
2026-05-04 19:19 48.68659 9.19326 1295 ft 15 kts 254°
2026-05-04 19:19 48.68657 9.19186 1295 ft 11 kts 312°
2026-05-04 19:20 48.68716 9.19156 1295 ft 8 kts 342°
2026-05-04 19:20 48.68766 9.19188 1295 ft 10 kts 77°
2026-05-04 19:20 48.68785 9.19272 1295 ft 6 kts 72°
2026-05-04 19:20 48.68770 9.19316 1295 ft 4 kts 147°
2026-05-04 19:21 48.68748 9.19324 1295 ft 3 kts 165°
2026-05-04 19:21 48.68734 9.19329 1295 ft 1 kts 165°
2026-05-04 19:21 48.68733 9.19329 1295 ft 0 kts 165°